CZ-6A DEB, 54554

Orbit data source: Space-Track

CZ-6A DEB, 54554 is space debris in SSO originally from a launch on Fri, 11 Nov 2022 UTC launched from the Taiyaun Space Center, China (TSC). Debris objects in space refer to the collection of defunct objects orbiting the Earth. Examples of debris include non-operational satellites, rocket bodies, and fragments generated from explosions, collisions, or faulty payload assembly.

Loading next visibility...
Identifier
54554, 2022-151LE
Orbit
SSO
Country
Flag of CNCN / PRC
Related business
Manufacturer
SAST
Mission
Spacecraft
Bus & Motor
Unknown
Mass
Unknown
Launch date (UTC)
2022-11-11 (3 years ago)
Launch vehicle
Unknown
Launch site
Taiyaun Space Center, China (TSC)
Object type
Payload
Rocket body
Debris
Shape & HBR
Unknown shape, 0.1 m
Radar Cross Section
Small (<0.1 m²)

Expand to show TLE details & history
Last TLE update: 7 hours ago

TLE from 7 hours ago
0 CZ-6A DEB
1 54554U 22151LE  26130.51140397  .00000265  00000-0  17116-3 0  9998
2 54554  98.8495 133.9655 0051214  47.2829 313.2637 14.10528752179462
Epoch: 2026-05-10T12:16Z
TLE epoch observation values (Epoch: 2026-05-10T12:16:25.303Z)
Latitude
0.00004°
Longitude
81.54663°
Altitude
835.159 km
Speed
7.448 km/s
True Right ascension
08h 55m 51s
True Declination
0° 00' 00"
Sunlit
Object was in daylight at epoch
Visualization orbit readout
Latitude
Unknown
Longitude
Unknown
Altitude
Unknown
Speed
Unknown
Apparent Right ascension
Unknown
Apparent Declination
Unknown
Sunlit
N/A
Visualization observer readout
Local Sidereal Time
03:39:01
Azimuth
Unknown
Elevation
Unknown
Doppler factor
Unknown
Orbital elements
Apogee altitude
891.783 km
Perigee altitude
817.698 km
Semi-major axis
7,232.878 km
Eccentricity
0.00512
Inclination
98.8495°
RAAN
133.9655°
Arg. of periapsis
47.2829°
True anomaly
312.83446°
Mean anomaly
313.2637°
Eccentric anomaly
313.04927°
Mean motion
3.52839 °/min
Orbital period
102.03 mins
BSTAR
0.00017116
Loading maneuver chart data...
Computing Atmospheric mass density...
Loading historical data...
Loading historical data...
Loading historical data...
Loading historical data...
Loading historical data...
Loading historical data...
Loading historical data...

Documentation

Showing up to 5 results
|